TimeCDT,TemperatureF,Dew PointF,Humidity,Sea Level PressureIn,VisibilityMPH,Wind Direction,Wind SpeedMPH,Gust SpeedMPH,PrecipitationIn,Events,Conditions,WindDirDegrees,DateUTC
12:53 AM,63.0,54.0,72,29.99,10.0,North,-9999.0,-,N/A,,Clear,0,2013-09-14 05:53:00
1:53 AM,60.1,53.1,78,29.99,10.0,North,-9999.0,-,N/A,,Clear,0,2013-09-14 06:53:00
2:53 AM,57.9,53.1,84,29.99,10.0,North,-9999.0,-,N/A,,Clear,0,2013-09-14 07:53:00
3:53 AM,55.9,52.0,87,29.98,10.0,North,-9999.0,-,N/A,,Clear,0,2013-09-14 08:53:00
4:53 AM,55.9,52.0,87,29.99,10.0,North,-9999.0,-,N/A,,Clear,0,2013-09-14 09:53:00
5:53 AM,54.0,51.1,90,30.01,10.0,North,5.8,-,N/A,,Clear,10,2013-09-14 10:53:00
6:53 AM,54.0,51.1,90,30.02,10.0,NNE,8.1,-,N/A,,Clear,20,2013-09-14 11:53:00
7:53 AM,57.9,52.0,81,30.04,10.0,NE,5.8,-,N/A,,Clear,40,2013-09-14 12:53:00
8:53 AM,64.0,52.0,65,30.06,10.0,NNE,5.8,-,N/A,,Clear,30,2013-09-14 13:53:00
9:53 AM,69.1,50.0,51,30.06,10.0,North,8.1,-,N/A,,Clear,360,2013-09-14 14:53:00
10:53 AM,71.1,46.9,42,30.06,10.0,North,9.2,-,N/A,,Clear,10,2013-09-14 15:53:00
11:53 AM,73.9,46.9,38,30.05,10.0,North,9.2,-,N/A,,Clear,10,2013-09-14 16:53:00
12:53 PM,77.0,46.9,34,30.04,10.0,North,9.2,-,N/A,,Clear,10,2013-09-14 17:53:00
1:53 PM,78.1,46.0,32,30.02,10.0,North,9.2,-,N/A,,Clear,10,2013-09-14 18:53:00
2:53 PM,79.0,46.0,31,30.00,10.0,NE,8.1,-,N/A,,Clear,40,2013-09-14 19:53:00
3:53 PM,79.0,46.9,32,29.99,10.0,North,-9999.0,-,N/A,,Clear,0,2013-09-14 20:53:00
4:53 PM,79.0,46.0,31,29.99,10.0,NNE,8.1,-,N/A,,Clear,30,2013-09-14 21:53:00
5:53 PM,78.1,46.0,32,30.00,10.0,North,8.1,-,N/A,,Clear,350,2013-09-14 22:53:00
6:53 PM,73.0,48.0,41,30.00,10.0,North,-9999.0,-,N/A,,Clear,0,2013-09-14 23:53:00
7:53 PM,71.1,48.9,45,30.01,10.0,North,-9999.0,-,N/A,,Clear,0,2013-09-15 00:53:00
8:53 PM,64.0,51.1,63,30.03,10.0,North,-9999.0,-,N/A,,Clear,0,2013-09-15 01:53:00
9:53 PM,61.0,52.0,72,30.04,10.0,North,-9999.0,-,N/A,,Clear,0,2013-09-15 02:53:00
10:53 PM,61.0,52.0,72,30.05,10.0,North,-9999.0,-,N/A,,Clear,0,2013-09-15 03:53:00
11:53 PM,60.1,52.0,75,30.05,10.0,North,-9999.0,-,N/A,,Clear,0,2013-09-15 04:53:00